Year,Month,Day,Hour,Minute,Value (Times are PST for temperature in C)
2014,07,13,00,00,17.40
2014,07,13,00,01,17.40
2014,07,13,00,02,17.40
2014,07,13,00,03,17.30
2014,07,13,00,04,17.30
2014,07,13,00,05,17.30
2014,07,13,00,06,17.30
2014,07,13,00,07,17.20
2014,07,13,00,08,17.20
2014,07,13,00,09,17.20
2014,07,13,00,10,17.20
2014,07,13,00,11,17.20
2014,07,13,00,12,17.20
2014,07,13,00,13,17.10
2014,07,13,00,14,17.10
2014,07,13,00,15,17.10
2014,07,13,00,16,17.10
2014,07,13,00,17,17.10
2014,07,13,00,18,17.10
2014,07,13,00,19,17.10
2014,07,13,00,20,17.00
2014,07,13,00,21,17.00
2014,07,13,00,22,17.00
2014,07,13,00,23,16.90
2014,07,13,00,24,16.90
2014,07,13,00,25,16.90
2014,07,13,00,26,16.90
2014,07,13,00,27,16.80
2014,07,13,00,28,16.80
2014,07,13,00,29,16.80
2014,07,13,00,30,16.80
2014,07,13,00,31,16.80
2014,07,13,00,32,16.80
2014,07,13,00,33,16.70
2014,07,13,00,34,16.70
2014,07,13,00,35,16.70
2014,07,13,00,36,16.70
2014,07,13,00,37,16.70
2014,07,13,00,38,16.60
2014,07,13,00,39,16.60
2014,07,13,00,40,16.60
2014,07,13,00,41,16.60
2014,07,13,00,42,16.60
2014,07,13,00,43,16.50
2014,07,13,00,44,16.50
2014,07,13,00,45,16.50
2014,07,13,00,46,16.40
2014,07,13,00,47,16.40
2014,07,13,00,48,16.40
2014,07,13,00,49,16.40
2014,07,13,00,50,16.40
2014,07,13,00,51,16.40
2014,07,13,00,52,16.40
2014,07,13,00,53,16.30
2014,07,13,00,54,16.30
2014,07,13,00,55,16.30
2014,07,13,00,56,16.30
2014,07,13,00,57,16.30
2014,07,13,00,58,16.30
2014,07,13,00,59,16.30
2014,07,13,01,00,16.20
2014,07,13,01,01,16.20
2014,07,13,01,02,16.20
2014,07,13,01,03,16.20
2014,07,13,01,04,16.20
2014,07,13,01,05,16.10
2014,07,13,01,06,16.10
2014,07,13,01,07,16.10
2014,07,13,01,08,16.10
2014,07,13,01,09,16.10
2014,07,13,01,10,16.00
2014,07,13,01,11,16.00
2014,07,13,01,12,16.00
2014,07,13,01,13,15.90
2014,07,13,01,14,15.90
2014,07,13,01,15,15.90
2014,07,13,01,16,15.90
2014,07,13,01,17,15.80
2014,07,13,01,18,15.80
2014,07,13,01,19,15.80
2014,07,13,01,20,15.80
2014,07,13,01,21,15.80
2014,07,13,01,22,15.80
2014,07,13,01,23,15.70
2014,07,13,01,24,15.70
2014,07,13,01,25,15.70
2014,07,13,01,26,15.70
2014,07,13,01,27,15.60
2014,07,13,01,28,15.60
2014,07,13,01,29,15.60
2014,07,13,01,30,15.60
2014,07,13,01,31,15.60
2014,07,13,01,32,15.50
2014,07,13,01,33,15.50
2014,07,13,01,34,15.50
2014,07,13,01,35,15.40
2014,07,13,01,36,15.40
2014,07,13,01,37,15.40
2014,07,13,01,38,15.40
2014,07,13,01,39,15.30
2014,07,13,01,40,15.30
2014,07,13,01,41,15.30
2014,07,13,01,42,15.30
2014,07,13,01,43,15.30
2014,07,13,01,44,15.30
2014,07,13,01,45,15.20
2014,07,13,01,46,15.20
2014,07,13,01,47,15.20
2014,07,13,01,48,15.20
2014,07,13,01,49,15.20
2014,07,13,01,50,15.10
2014,07,13,01,51,15.10
2014,07,13,01,52,15.10
2014,07,13,01,53,15.10
2014,07,13,01,54,15.10
2014,07,13,01,55,15.10
2014,07,13,01,56,15.00
2014,07,13,01,57,15.00
2014,07,13,01,58,15.00
2014,07,13,01,59,15.00
2014,07,13,02,00,14.90
2014,07,13,02,01,14.90
2014,07,13,02,02,14.90
2014,07,13,02,03,14.90
2014,07,13,02,04,14.90
2014,07,13,02,05,14.80
2014,07,13,02,06,14.80
2014,07,13,02,07,14.80
2014,07,13,02,08,14.80
2014,07,13,02,09,14.80
2014,07,13,02,10,14.80
2014,07,13,02,11,14.80
2014,07,13,02,12,14.80
2014,07,13,02,13,14.80
2014,07,13,02,14,14.70
2014,07,13,02,15,14.70
2014,07,13,02,16,14.70
2014,07,13,02,17,14.70
2014,07,13,02,18,14.70
2014,07,13,02,19,14.70
2014,07,13,02,20,14.70
2014,07,13,02,21,14.70
2014,07,13,02,22,14.70
2014,07,13,02,23,14.70
2014,07,13,02,24,14.60
2014,07,13,02,25,14.60
2014,07,13,02,26,14.60
2014,07,13,02,27,14.60
2014,07,13,02,28,14.60
2014,07,13,02,29,14.60
2014,07,13,02,30,14.60
2014,07,13,02,31,14.60
2014,07,13,02,32,14.60
2014,07,13,02,33,14.50
2014,07,13,02,34,14.50
2014,07,13,02,35,14.50
2014,07,13,02,36,14.40
2014,07,13,02,37,14.40
2014,07,13,02,38,14.40
2014,07,13,02,39,14.40
2014,07,13,02,40,14.40
2014,07,13,02,41,14.40
2014,07,13,02,42,14.30
2014,07,13,02,43,14.30
2014,07,13,02,44,14.30
2014,07,13,02,45,14.30
2014,07,13,02,46,14.30
2014,07,13,02,47,14.30
2014,07,13,02,48,14.30
2014,07,13,02,49,14.30
2014,07,13,02,50,14.30
2014,07,13,02,51,14.30
2014,07,13,02,52,14.20
2014,07,13,02,53,14.20
2014,07,13,02,54,14.20
2014,07,13,02,55,14.20
2014,07,13,02,56,14.20
2014,07,13,02,57,14.20
2014,07,13,02,58,14.20
2014,07,13,02,59,14.10
2014,07,13,03,00,14.10
2014,07,13,03,01,14.10
2014,07,13,03,02,14.10
2014,07,13,03,03,14.10
2014,07,13,03,04,14.10
2014,07,13,03,05,14.10
2014,07,13,03,06,14.00
2014,07,13,03,07,14.00
2014,07,13,03,08,14.00
2014,07,13,03,09,14.00
2014,07,13,03,10,14.00
2014,07,13,03,11,13.90
2014,07,13,03,12,13.90
2014,07,13,03,13,13.90
2014,07,13,03,14,13.90
2014,07,13,03,15,13.90
2014,07,13,03,16,13.90
2014,07,13,03,17,13.90
2014,07,13,03,18,13.90
2014,07,13,03,19,13.90
2014,07,13,03,20,13.80
2014,07,13,03,21,13.80
2014,07,13,03,22,13.80
2014,07,13,03,23,13.80
2014,07,13,03,24,13.80
2014,07,13,03,25,13.80
2014,07,13,03,26,13.80
2014,07,13,03,27,13.80
2014,07,13,03,28,13.70
2014,07,13,03,29,13.70
2014,07,13,03,30,13.70
2014,07,13,03,31,13.70
2014,07,13,03,32,13.70
2014,07,13,03,33,13.70
2014,07,13,03,34,13.70
2014,07,13,03,35,13.70
2014,07,13,03,36,13.60
2014,07,13,03,37,13.60
2014,07,13,03,38,13.60
2014,07,13,03,39,13.60
2014,07,13,03,40,13.60
2014,07,13,03,41,13.60
2014,07,13,03,42,13.60
2014,07,13,03,43,13.60
2014,07,13,03,44,13.50
2014,07,13,03,45,13.50
2014,07,13,03,46,13.50
2014,07,13,03,47,13.50
2014,07,13,03,48,13.40
2014,07,13,03,49,13.40
2014,07,13,03,50,13.40
2014,07,13,03,51,13.40
2014,07,13,03,52,13.40
2014,07,13,03,53,13.40
2014,07,13,03,54,13.40
2014,07,13,03,55,13.40
2014,07,13,03,56,13.40
2014,07,13,03,57,13.40
2014,07,13,03,58,13.40
2014,07,13,03,59,13.40
2014,07,13,04,00,13.40
2014,07,13,04,01,13.40
2014,07,13,04,02,13.30
2014,07,13,04,03,13.30
2014,07,13,04,04,13.30
2014,07,13,04,05,13.30
2014,07,13,04,06,13.30
2014,07,13,04,07,13.30
2014,07,13,04,08,13.30
2014,07,13,04,09,13.30
2014,07,13,04,10,13.30
2014,07,13,04,11,13.30
2014,07,13,04,12,13.30
2014,07,13,04,13,13.30
2014,07,13,04,14,13.30
2014,07,13,04,15,13.20
2014,07,13,04,16,13.20
2014,07,13,04,17,13.20
2014,07,13,04,18,13.20
2014,07,13,04,19,13.20
2014,07,13,04,20,13.20
2014,07,13,04,21,13.20
2014,07,13,04,22,13.20
2014,07,13,04,23,13.20
2014,07,13,04,24,13.20
2014,07,13,04,25,13.20
2014,07,13,04,26,13.20
2014,07,13,04,27,13.20
2014,07,13,04,28,13.20
2014,07,13,04,29,13.20
2014,07,13,04,30,13.20
2014,07,13,04,31,13.20
2014,07,13,04,32,13.20
2014,07,13,04,33,13.20
2014,07,13,04,34,13.10
2014,07,13,04,35,13.10
2014,07,13,04,36,13.10
2014,07,13,04,37,13.10
2014,07,13,04,38,13.10
2014,07,13,04,39,13.10
2014,07,13,04,40,13.10
2014,07,13,04,41,13.10
2014,07,13,04,42,13.10
2014,07,13,04,43,13.10
2014,07,13,04,44,13.10
2014,07,13,04,45,13.10
2014,07,13,04,46,13.10
2014,07,13,04,47,13.00
2014,07,13,04,48,13.00
2014,07,13,04,49,13.00
2014,07,13,04,50,12.90
2014,07,13,04,51,12.90
2014,07,13,04,52,12.90
2014,07,13,04,53,12.90
2014,07,13,04,54,12.90
2014,07,13,04,55,12.90
2014,07,13,04,56,12.90
2014,07,13,04,57,12.90
2014,07,13,04,58,12.90
2014,07,13,04,59,12.90
2014,07,13,05,00,12.90
2014,07,13,05,01,12.80
2014,07,13,05,02,12.80
2014,07,13,05,03,12.80
2014,07,13,05,04,12.80
2014,07,13,05,05,12.80
2014,07,13,05,06,12.80
2014,07,13,05,07,12.80
2014,07,13,05,08,12.80
2014,07,13,05,09,12.80
2014,07,13,05,10,12.80
2014,07,13,05,11,12.70
2014,07,13,05,12,12.70
2014,07,13,05,13,12.70
2014,07,13,05,14,12.70
2014,07,13,05,15,12.70
2014,07,13,05,16,12.70
2014,07,13,05,17,12.70
2014,07,13,05,18,12.70
2014,07,13,05,19,12.70
2014,07,13,05,20,12.70
2014,07,13,05,21,12.70
2014,07,13,05,22,12.70
2014,07,13,05,23,12.70
2014,07,13,05,24,12.70
2014,07,13,05,25,12.70
2014,07,13,05,26,12.70
2014,07,13,05,27,12.70
2014,07,13,05,28,12.70
2014,07,13,05,29,12.70
2014,07,13,05,30,12.70
2014,07,13,05,31,12.70
2014,07,13,05,32,12.60
2014,07,13,05,33,12.60
2014,07,13,05,34,12.60
2014,07,13,05,35,12.60
2014,07,13,05,36,12.60
2014,07,13,05,37,12.60
2014,07,13,05,38,12.60
2014,07,13,05,39,12.60
2014,07,13,05,40,12.60
2014,07,13,05,41,12.60
2014,07,13,05,42,12.60
2014,07,13,05,43,12.60
2014,07,13,05,44,12.60
2014,07,13,05,45,12.60
2014,07,13,05,46,12.60
2014,07,13,05,47,12.60
2014,07,13,05,48,12.60
2014,07,13,05,49,12.60
2014,07,13,05,50,12.50
2014,07,13,05,51,12.50
2014,07,13,05,52,12.50
2014,07,13,05,53,12.50
2014,07,13,05,54,12.50
2014,07,13,05,55,12.50
2014,07,13,05,56,12.50
2014,07,13,05,57,12.50
2014,07,13,05,58,12.50
2014,07,13,05,59,12.50
2014,07,13,06,00,12.50
2014,07,13,06,01,12.50
2014,07,13,06,02,12.50
2014,07,13,06,03,12.50
2014,07,13,06,04,12.50
2014,07,13,06,05,12.50
2014,07,13,06,06,12.50
2014,07,13,06,07,12.40
2014,07,13,06,08,12.50
2014,07,13,06,09,12.40
2014,07,13,06,10,12.40
2014,07,13,06,11,12.40
2014,07,13,06,12,12.40
2014,07,13,06,13,12.40
2014,07,13,06,14,12.40
2014,07,13,06,15,12.50
2014,07,13,06,16,12.40
2014,07,13,06,17,12.50
2014,07,13,06,18,12.50
2014,07,13,06,19,12.50
2014,07,13,06,20,12.50
2014,07,13,06,21,12.50
2014,07,13,06,22,12.50
2014,07,13,06,23,12.50
2014,07,13,06,24,12.50
2014,07,13,06,25,12.50
2014,07,13,06,26,12.40
2014,07,13,06,27,12.40
2014,07,13,06,28,12.40
2014,07,13,06,29,12.50
2014,07,13,06,30,12.50
2014,07,13,06,31,12.50
2014,07,13,06,32,12.50
2014,07,13,06,33,12.50
2014,07,13,06,34,12.50
2014,07,13,06,35,12.50
2014,07,13,06,36,12.50
2014,07,13,06,37,12.50
2014,07,13,06,38,12.50
2014,07,13,06,39,12.50
2014,07,13,06,40,12.50
2014,07,13,06,41,12.50
2014,07,13,06,42,12.50
2014,07,13,06,43,12.50
2014,07,13,06,44,12.50
2014,07,13,06,45,12.60
2014,07,13,06,46,12.60
2014,07,13,06,47,12.60
2014,07,13,06,48,12.60
2014,07,13,06,49,12.60
2014,07,13,06,50,12.60
2014,07,13,06,51,12.60
2014,07,13,06,52,12.60
2014,07,13,06,53,12.60
2014,07,13,06,54,12.60
2014,07,13,06,55,12.70
2014,07,13,06,56,12.70
2014,07,13,06,57,12.70
2014,07,13,06,58,12.80
2014,07,13,06,59,12.80
2014,07,13,07,00,12.80
2014,07,13,07,01,12.90
2014,07,13,07,02,12.90
2014,07,13,07,03,13.00
2014,07,13,07,04,13.00
2014,07,13,07,05,13.10
2014,07,13,07,06,13.20
2014,07,13,07,07,13.20
2014,07,13,07,08,13.30
2014,07,13,07,09,13.40
2014,07,13,07,10,13.50
2014,07,13,07,11,13.60
2014,07,13,07,12,13.60
2014,07,13,07,13,13.70
2014,07,13,07,14,13.80
2014,07,13,07,15,13.90
2014,07,13,07,16,14.00
2014,07,13,07,17,14.10
2014,07,13,07,18,14.20
2014,07,13,07,19,14.30
2014,07,13,07,20,14.40
2014,07,13,07,21,14.50
2014,07,13,07,22,14.60
2014,07,13,07,23,14.70
2014,07,13,07,24,14.90
2014,07,13,07,25,14.90
2014,07,13,07,26,15.00
2014,07,13,07,27,15.10
2014,07,13,07,28,15.10
2014,07,13,07,29,15.20
2014,07,13,07,30,15.20
2014,07,13,07,31,15.20
2014,07,13,07,32,15.30
2014,07,13,07,33,15.40
2014,07,13,07,34,15.50
2014,07,13,07,35,15.60
2014,07,13,07,36,15.70
2014,07,13,07,37,15.80
2014,07,13,07,38,15.90
2014,07,13,07,39,16.00
2014,07,13,07,40,16.00
2014,07,13,07,41,16.00
2014,07,13,07,42,16.00
2014,07,13,07,43,15.90
2014,07,13,07,44,15.90
2014,07,13,07,45,15.90
2014,07,13,07,46,15.80
2014,07,13,07,47,15.80
2014,07,13,07,48,15.90
2014,07,13,07,49,16.00
2014,07,13,07,50,16.10
2014,07,13,07,51,16.20
2014,07,13,07,52,16.30
2014,07,13,07,53,16.40
2014,07,13,07,54,16.50
2014,07,13,07,55,16.50
2014,07,13,07,56,16.60
2014,07,13,07,57,16.70
2014,07,13,07,58,16.80
2014,07,13,07,59,16.90
2014,07,13,08,00,17.00
2014,07,13,08,01,17.10
2014,07,13,08,02,17.20
2014,07,13,08,03,17.30
2014,07,13,08,04,17.40
2014,07,13,08,05,17.50
2014,07,13,08,06,17.60
2014,07,13,08,07,17.60
2014,07,13,08,08,17.60
2014,07,13,08,09,17.60
2014,07,13,08,10,17.70
2014,07,13,08,11,17.70
2014,07,13,08,12,17.80
2014,07,13,08,13,17.90
2014,07,13,08,14,18.00
2014,07,13,08,15,18.00
2014,07,13,08,16,18.10
2014,07,13,08,17,18.10
2014,07,13,08,18,18.20
2014,07,13,08,19,18.30
2014,07,13,08,20,18.30
2014,07,13,08,21,18.30
2014,07,13,08,22,18.40
2014,07,13,08,23,18.40
2014,07,13,08,24,18.40
2014,07,13,08,25,18.40
2014,07,13,08,26,18.50
2014,07,13,08,27,18.50
2014,07,13,08,28,18.50
2014,07,13,08,29,18.50
2014,07,13,08,30,18.60
2014,07,13,08,31,18.60
2014,07,13,08,32,18.60
2014,07,13,08,33,18.60
2014,07,13,08,34,18.60
2014,07,13,08,35,18.70
2014,07,13,08,36,18.70
2014,07,13,08,37,18.70
2014,07,13,08,38,18.80
2014,07,13,08,39,18.80
2014,07,13,08,40,18.80
2014,07,13,08,41,18.90
2014,07,13,08,42,19.00
2014,07,13,08,43,19.00
2014,07,13,08,44,19.10
2014,07,13,08,45,19.10
2014,07,13,08,46,19.20
2014,07,13,08,47,19.20
2014,07,13,08,48,19.30
2014,07,13,08,49,19.40
2014,07,13,08,50,19.40
2014,07,13,08,51,19.50
2014,07,13,08,52,19.60
2014,07,13,08,53,19.70
2014,07,13,08,54,19.80
2014,07,13,08,55,19.80
2014,07,13,08,56,19.90
2014,07,13,08,57,19.90
2014,07,13,08,58,19.90
2014,07,13,08,59,20.00
2014,07,13,09,00,20.00
2014,07,13,09,01,20.00
2014,07,13,09,02,20.00
2014,07,13,09,03,20.10
2014,07,13,09,04,20.00
2014,07,13,09,05,20.10
2014,07,13,09,06,20.10
2014,07,13,09,07,20.20
2014,07,13,09,08,20.20
2014,07,13,09,09,20.30
2014,07,13,09,10,20.40
2014,07,13,09,11,20.50
2014,07,13,09,12,20.60
2014,07,13,09,13,20.70
2014,07,13,09,14,20.80
2014,07,13,09,15,20.80
2014,07,13,09,16,20.80
2014,07,13,09,17,20.80
2014,07,13,09,18,20.90
2014,07,13,09,19,20.90
2014,07,13,09,20,20.90
2014,07,13,09,21,20.90
2014,07,13,09,22,20.90
2014,07,13,09,23,21.00
2014,07,13,09,24,21.00
2014,07,13,09,25,21.10
2014,07,13,09,26,21.10
2014,07,13,09,27,21.20
2014,07,13,09,28,21.30
2014,07,13,09,29,21.30
2014,07,13,09,30,21.40
2014,07,13,09,31,21.50
2014,07,13,09,32,21.60
2014,07,13,09,33,21.70
2014,07,13,09,34,21.70
2014,07,13,09,35,21.70
2014,07,13,09,36,21.70
2014,07,13,09,37,21.80
2014,07,13,09,38,21.80
2014,07,13,09,39,21.80
2014,07,13,09,40,21.90
2014,07,13,09,41,22.00
2014,07,13,09,42,22.00
2014,07,13,09,43,22.10
2014,07,13,09,44,22.10
2014,07,13,09,45,22.20
2014,07,13,09,46,22.20
2014,07,13,09,47,22.20
2014,07,13,09,48,22.20
2014,07,13,09,49,22.20
2014,07,13,09,50,22.20
2014,07,13,09,51,22.20
2014,07,13,09,52,22.30
2014,07,13,09,53,22.30
2014,07,13,09,54,22.30
2014,07,13,09,55,22.40
2014,07,13,09,56,22.40
2014,07,13,09,57,22.50
2014,07,13,09,58,22.50
2014,07,13,09,59,22.60
2014,07,13,10,00,22.70
2014,07,13,10,01,22.70
2014,07,13,10,02,22.70
2014,07,13,10,03,22.80
2014,07,13,10,04,22.80
2014,07,13,10,05,22.90
2014,07,13,10,06,22.90
2014,07,13,10,07,22.90
2014,07,13,10,08,23.00
2014,07,13,10,09,23.00
2014,07,13,10,10,23.10
2014,07,13,10,11,23.10
2014,07,13,10,12,23.20
2014,07,13,10,13,23.20
2014,07,13,10,14,23.20
2014,07,13,10,15,23.30
2014,07,13,10,16,23.40
2014,07,13,10,17,23.50
2014,07,13,10,18,23.60
2014,07,13,10,19,23.70
2014,07,13,10,20,23.80
2014,07,13,10,21,23.80
2014,07,13,10,22,23.90
2014,07,13,10,23,23.90
2014,07,13,10,24,23.90
2014,07,13,10,25,23.90
2014,07,13,10,26,23.80
2014,07,13,10,27,23.80
2014,07,13,10,28,23.80
2014,07,13,10,29,23.80
2014,07,13,10,30,23.90
2014,07,13,10,31,23.90
2014,07,13,10,32,24.00
2014,07,13,10,33,24.10
2014,07,13,10,34,24.20
2014,07,13,10,35,24.30
2014,07,13,10,36,24.40
2014,07,13,10,37,24.50
2014,07,13,10,38,24.60
2014,07,13,10,39,24.70
2014,07,13,10,40,24.70
2014,07,13,10,41,24.80
2014,07,13,10,42,24.80
2014,07,13,10,43,24.80
2014,07,13,10,44,24.80
2014,07,13,10,45,24.90
2014,07,13,10,46,24.90
2014,07,13,10,47,24.90
2014,07,13,10,48,25.00
2014,07,13,10,49,25.00
2014,07,13,10,50,25.10
2014,07,13,10,51,25.10
2014,07,13,10,52,25.10
2014,07,13,10,53,25.20
2014,07,13,10,54,25.20
2014,07,13,10,55,25.30
2014,07,13,10,56,25.30
2014,07,13,10,57,25.40
2014,07,13,10,58,25.40
2014,07,13,10,59,25.50
2014,07,13,11,00,25.50
2014,07,13,11,01,25.60
2014,07,13,11,02,25.70
2014,07,13,11,03,25.70
2014,07,13,11,04,25.80
2014,07,13,11,05,25.90
2014,07,13,11,06,25.90
2014,07,13,11,07,26.00
2014,07,13,11,08,26.10
2014,07,13,11,09,26.20
2014,07,13,11,10,26.30
2014,07,13,11,11,26.40
2014,07,13,11,12,26.40
2014,07,13,11,13,26.50
2014,07,13,11,14,26.60
2014,07,13,11,15,26.60
2014,07,13,11,16,26.70
2014,07,13,11,17,26.80
2014,07,13,11,18,26.90
2014,07,13,11,19,27.00
2014,07,13,11,20,27.00
2014,07,13,11,21,27.10
2014,07,13,11,22,27.10
2014,07,13,11,23,27.20
2014,07,13,11,24,27.30
2014,07,13,11,25,27.30
2014,07,13,11,26,27.30
2014,07,13,11,27,27.30
2014,07,13,11,28,27.30
2014,07,13,11,29,27.30
2014,07,13,11,30,27.30
2014,07,13,11,31,27.40
2014,07,13,11,32,27.40
2014,07,13,11,33,27.50
2014,07,13,11,34,27.50
2014,07,13,11,35,27.60
2014,07,13,11,36,27.70
2014,07,13,11,37,27.80
2014,07,13,11,38,27.80
2014,07,13,11,39,27.90
2014,07,13,11,40,28.10
2014,07,13,11,41,28.20
2014,07,13,11,42,28.30
2014,07,13,11,43,28.30
2014,07,13,11,44,28.30
2014,07,13,11,45,28.40
2014,07,13,11,46,28.40
2014,07,13,11,47,28.40
2014,07,13,11,48,28.40
2014,07,13,11,49,28.40
2014,07,13,11,50,28.30
2014,07,13,11,51,28.30
2014,07,13,11,52,28.30
2014,07,13,11,53,28.30
2014,07,13,11,54,28.30
2014,07,13,11,55,28.30
2014,07,13,11,56,28.30
2014,07,13,11,57,28.40
2014,07,13,11,58,28.40
2014,07,13,11,59,28.40
2014,07,13,12,00,28.40
2014,07,13,12,01,28.40
2014,07,13,12,02,28.40
2014,07,13,12,03,28.50
2014,07,13,12,04,28.50
2014,07,13,12,05,28.50
2014,07,13,12,06,28.60
2014,07,13,12,07,28.70
2014,07,13,12,08,28.80
2014,07,13,12,09,28.90
2014,07,13,12,10,29.00
2014,07,13,12,11,29.10
2014,07,13,12,12,29.10
2014,07,13,12,13,29.20
2014,07,13,12,14,29.30
2014,07,13,12,15,29.40
2014,07,13,12,16,29.50
2014,07,13,12,17,29.50
2014,07,13,12,18,29.60
2014,07,13,12,19,29.60
2014,07,13,12,20,29.60
2014,07,13,12,21,29.70
2014,07,13,12,22,29.70
2014,07,13,12,23,29.80
2014,07,13,12,24,29.90
2014,07,13,12,25,30.00
2014,07,13,12,26,30.10
2014,07,13,12,27,30.10
2014,07,13,12,28,30.10
2014,07,13,12,29,30.10
2014,07,13,12,30,30.20
2014,07,13,12,31,30.20
2014,07,13,12,32,30.30
2014,07,13,12,33,30.50
2014,07,13,12,34,30.60
2014,07,13,12,35,30.70
2014,07,13,12,36,30.90
2014,07,13,12,37,31.00
2014,07,13,12,38,31.10
2014,07,13,12,39,31.20
2014,07,13,12,40,31.20
2014,07,13,12,41,31.30
2014,07,13,12,42,31.20
2014,07,13,12,43,31.20
2014,07,13,12,44,31.20
2014,07,13,12,45,31.10
2014,07,13,12,46,31.10
2014,07,13,12,47,31.10
2014,07,13,12,48,31.10
2014,07,13,12,49,31.10
2014,07,13,12,50,31.10
2014,07,13,12,51,31.20
2014,07,13,12,52,31.20
2014,07,13,12,53,31.20
2014,07,13,12,54,31.30
2014,07,13,12,55,31.30
2014,07,13,12,56,31.40
2014,07,13,12,57,31.50
2014,07,13,12,58,31.60
2014,07,13,12,59,31.60
2014,07,13,13,00,31.70
2014,07,13,13,01,31.80
2014,07,13,13,02,31.80
2014,07,13,13,03,31.90
2014,07,13,13,04,32.00
2014,07,13,13,05,32.10
2014,07,13,13,06,32.10
2014,07,13,13,07,32.20
2014,07,13,13,08,32.20
2014,07,13,13,09,32.20
2014,07,13,13,10,32.10
2014,07,13,13,11,32.10
2014,07,13,13,12,32.10
2014,07,13,13,13,32.10
2014,07,13,13,14,32.10
2014,07,13,13,15,32.00
2014,07,13,13,16,31.90
2014,07,13,13,17,31.80
2014,07,13,13,18,31.70
2014,07,13,13,19,31.70
2014,07,13,13,20,31.60
2014,07,13,13,21,31.50
2014,07,13,13,22,31.50
2014,07,13,13,23,31.40
2014,07,13,13,24,31.30
2014,07,13,13,25,31.30
2014,07,13,13,26,31.20
2014,07,13,13,27,31.20
2014,07,13,13,28,31.10
2014,07,13,13,29,31.10
2014,07,13,13,30,31.00
2014,07,13,13,31,30.90
2014,07,13,13,32,30.90
2014,07,13,13,33,30.80
2014,07,13,13,34,30.80
2014,07,13,13,35,30.70
2014,07,13,13,36,30.60
2014,07,13,13,37,30.60
2014,07,13,13,38,30.60
2014,07,13,13,39,30.60
2014,07,13,13,40,30.60
2014,07,13,13,41,30.70
2014,07,13,13,42,30.70
2014,07,13,13,43,30.80
2014,07,13,13,44,30.80
2014,07,13,13,45,30.80
2014,07,13,13,46,30.80
2014,07,13,13,47,30.80
2014,07,13,13,48,30.80
2014,07,13,13,49,30.80
2014,07,13,13,50,30.90
2014,07,13,13,51,30.90
2014,07,13,13,52,31.00
2014,07,13,13,53,31.10
2014,07,13,13,54,31.10
2014,07,13,13,55,31.10
2014,07,13,13,56,31.10
2014,07,13,13,57,31.10
2014,07,13,13,58,31.20
2014,07,13,13,59,31.20
2014,07,13,14,00,31.20
2014,07,13,14,01,31.30
2014,07,13,14,02,31.30
2014,07,13,14,03,31.50
2014,07,13,14,04,31.50
2014,07,13,14,05,31.60
2014,07,13,14,06,31.60
2014,07,13,14,07,31.70
2014,07,13,14,08,31.70
2014,07,13,14,09,31.70
2014,07,13,14,10,31.70
2014,07,13,14,11,31.80
2014,07,13,14,12,31.80
2014,07,13,14,13,31.70
2014,07,13,14,14,31.70
2014,07,13,14,15,31.70
2014,07,13,14,16,31.70
2014,07,13,14,17,31.80
2014,07,13,14,18,31.80
2014,07,13,14,19,31.90
2014,07,13,14,20,31.90
2014,07,13,14,21,31.90
2014,07,13,14,22,31.90
2014,07,13,14,23,32.00
2014,07,13,14,24,32.00
2014,07,13,14,25,32.10
2014,07,13,14,26,32.10
2014,07,13,14,27,32.10
2014,07,13,14,28,32.20
2014,07,13,14,29,32.20
2014,07,13,14,30,32.20
2014,07,13,14,31,32.20
2014,07,13,14,32,32.20
2014,07,13,14,33,32.30
2014,07,13,14,34,32.30
2014,07,13,14,35,32.30
2014,07,13,14,36,32.30
2014,07,13,14,37,32.30
2014,07,13,14,38,32.30
2014,07,13,14,39,32.40
2014,07,13,14,40,32.40
2014,07,13,14,41,32.50
2014,07,13,14,42,32.50
2014,07,13,14,43,32.60
2014,07,13,14,44,32.70
2014,07,13,14,45,32.70
2014,07,13,14,46,32.70
2014,07,13,14,47,32.70
2014,07,13,14,48,32.80
2014,07,13,14,49,32.80
2014,07,13,14,50,32.80
2014,07,13,14,51,32.90
2014,07,13,14,52,32.80
2014,07,13,14,53,32.80
2014,07,13,14,54,32.80
2014,07,13,14,55,32.80
2014,07,13,14,56,32.80
2014,07,13,14,57,32.80
2014,07,13,14,58,32.90
2014,07,13,14,59,33.00
2014,07,13,15,00,33.10
2014,07,13,15,01,33.10
2014,07,13,15,02,33.10
2014,07,13,15,03,33.10
2014,07,13,15,04,33.10
2014,07,13,15,05,33.10
2014,07,13,15,06,33.10
2014,07,13,15,07,33.10
2014,07,13,15,08,33.10
2014,07,13,15,09,33.10
2014,07,13,15,10,33.10
2014,07,13,15,11,33.20
2014,07,13,15,12,33.20
2014,07,13,15,13,33.20
2014,07,13,15,14,33.20
2014,07,13,15,15,33.20
2014,07,13,15,16,33.10
2014,07,13,15,17,33.20
2014,07,13,15,18,33.20
2014,07,13,15,19,33.30
2014,07,13,15,20,33.30
2014,07,13,15,21,33.30
2014,07,13,15,22,33.30
2014,07,13,15,23,33.30
2014,07,13,15,24,33.30
2014,07,13,15,25,33.40
2014,07,13,15,26,33.50
2014,07,13,15,27,33.50
2014,07,13,15,28,33.60
2014,07,13,15,29,33.60
2014,07,13,15,30,33.60
2014,07,13,15,31,33.60
2014,07,13,15,32,33.60
2014,07,13,15,33,33.60
2014,07,13,15,34,33.60
2014,07,13,15,35,33.60
2014,07,13,15,36,33.70
2014,07,13,15,37,33.70
2014,07,13,15,38,33.80
2014,07,13,15,39,33.80
2014,07,13,15,40,33.80
2014,07,13,15,41,33.80
2014,07,13,15,42,33.80
2014,07,13,15,43,33.80
2014,07,13,15,44,33.80
2014,07,13,15,45,33.80
2014,07,13,15,46,33.90
2014,07,13,15,47,33.90
2014,07,13,15,48,34.00
2014,07,13,15,49,34.10
2014,07,13,15,50,34.20
2014,07,13,15,51,34.20
2014,07,13,15,52,34.20
2014,07,13,15,53,34.20
2014,07,13,15,54,34.20
2014,07,13,15,55,34.20
2014,07,13,15,56,34.10
2014,07,13,15,57,34.00
2014,07,13,15,58,33.90
2014,07,13,15,59,33.80
2014,07,13,16,00,33.80
2014,07,13,16,01,33.80
2014,07,13,16,02,33.70
2014,07,13,16,03,33.70
2014,07,13,16,04,33.70
2014,07,13,16,05,33.70
2014,07,13,16,06,33.70
2014,07,13,16,07,33.70
2014,07,13,16,08,33.70
2014,07,13,16,09,33.70
2014,07,13,16,10,33.70
2014,07,13,16,11,33.70
2014,07,13,16,12,33.80
2014,07,13,16,13,33.80
2014,07,13,16,14,33.70
2014,07,13,16,15,33.60
2014,07,13,16,16,33.50
2014,07,13,16,17,33.50
2014,07,13,16,18,33.40
2014,07,13,16,19,33.30
2014,07,13,16,20,33.20
2014,07,13,16,21,33.20
2014,07,13,16,22,33.10
2014,07,13,16,23,33.10
2014,07,13,16,24,33.10
2014,07,13,16,25,33.10
2014,07,13,16,26,33.10
2014,07,13,16,27,33.10
2014,07,13,16,28,33.10
2014,07,13,16,29,33.10
2014,07,13,16,30,33.10
2014,07,13,16,31,33.10
2014,07,13,16,32,33.10
2014,07,13,16,33,33.10
2014,07,13,16,34,33.10
2014,07,13,16,35,33.10
2014,07,13,16,36,33.10
2014,07,13,16,37,33.10
2014,07,13,16,38,33.10
2014,07,13,16,39,33.20
2014,07,13,16,40,33.20
2014,07,13,16,41,33.10
2014,07,13,16,42,33.10
2014,07,13,16,43,33.10
2014,07,13,16,44,33.10
2014,07,13,16,45,33.10
2014,07,13,16,46,33.10
2014,07,13,16,47,33.10
2014,07,13,16,48,33.00
2014,07,13,16,49,33.00
2014,07,13,16,50,33.00
2014,07,13,16,51,33.00
2014,07,13,16,52,33.00
2014,07,13,16,53,33.00
2014,07,13,16,54,33.00
2014,07,13,16,55,32.90
2014,07,13,16,56,33.00
2014,07,13,16,57,33.00
2014,07,13,16,58,33.00
2014,07,13,16,59,33.00
2014,07,13,17,00,32.90
2014,07,13,17,01,32.90
2014,07,13,17,02,32.90
2014,07,13,17,03,33.00
2014,07,13,17,04,33.00
2014,07,13,17,05,33.00
2014,07,13,17,06,33.00
2014,07,13,17,07,33.00
2014,07,13,17,08,32.90
2014,07,13,17,09,32.90
2014,07,13,17,10,32.90
2014,07,13,17,11,32.80
2014,07,13,17,12,32.80
2014,07,13,17,13,32.80
2014,07,13,17,14,32.80
2014,07,13,17,15,32.80
2014,07,13,17,16,32.80
2014,07,13,17,17,32.70
2014,07,13,17,18,32.60
2014,07,13,17,19,32.60